Location: Fort Wayne
(41.1310°N, 85.1290°W)
Time: 14:16:12
(UTC-04:00)

Meteor 2-9 Rocket - Visible Passes

Search period start: 25 July 2014 00:00
Search period end: 04 August 2014 00:00
Orbit: 791 x 897 km, 81.3° (Epoch: 23 July)

Date Brightness Start Highest point End Pass type
(mag) Time Alt. Az. Time Alt. Az. Time Alt. Az.
25 Jul 5.0 02:25:07 39° E 02:25:16 39° E 02:30:21 10° NNE visible
25 Jul 5.4 04:07:00 25° W 04:08:08 27° WNW 04:12:44 10° NNW visible
26 Jul 5.2 02:11:24 35° E 02:11:24 35° E 02:16:15 10° NNE visible
26 Jul 5.2 03:53:17 29° W 03:54:05 30° WNW 03:58:52 10° NNW visible
27 Jul 5.4 01:57:40 30° E 01:57:40 30° E 02:02:07 10° NNE visible
27 Jul 5.1 03:39:33 33° W 03:40:03 33° WNW 03:44:59 10° N visible
28 Jul 5.6 01:43:56 26° E 01:43:56 26° E 01:47:58 10° NNE visible
28 Jul 4.9 03:25:48 37° W 03:26:01 38° WNW 03:31:05 10° N visible
29 Jul 5.8 01:30:10 23° ENE 01:30:10 23° ENE 01:33:46 10° NE visible
29 Jul 4.8 03:12:02 42° WNW 03:12:02 42° WNW 03:17:10 10° N visible
30 Jul 5.9 01:16:24 20° ENE 01:16:24 20° ENE 01:19:33 10° NE visible
30 Jul 4.7 02:58:16 48° WNW 02:58:16 48° WNW 03:03:15 10° N visible
31 Jul 6.1 01:02:37 18° ENE 01:02:37 18° ENE 01:05:17 10° NE visible
31 Jul 4.6 02:44:29 52° NW 02:44:29 52° NW 02:49:18 10° N visible
01 Aug 6.2 00:48:49 15° ENE 00:48:49 15° ENE 00:50:56 10° NE visible
01 Aug 4.5 02:30:41 56° NW 02:30:41 56° NW 02:35:20 10° N visible
02 Aug 6.3 00:35:00 13° ENE 00:35:00 13° ENE 00:36:30 10° NE visible
02 Aug 4.5 02:16:52 59° NNW 02:16:52 59° NNW 02:21:22 10° N visible
03 Aug 6.5 00:21:11 11° ENE 00:21:11 11° ENE 00:21:52 10° ENE visible
03 Aug 4.6 02:03:03 58° N 02:03:03 58° N 02:07:23 10° N visible
